Location: Boston
(42.3580°N, 71.0600°W)
Time: 01:14:13
(UTC-04:00)

Vanguard 1 Rocket - Visible Passes

Search period start: 20 April 2018 00:00
Search period end: 30 April 2018 00:00
Orbit: 655 x 4223 km, 34.3° (Epoch: 18 April)

Date Brightness Start Highest point End Pass type
(mag) Time Alt. Az. Time Alt. Az. Time Alt. Az.
20 Apr 11.4 05:14:34 10° S 05:28:01 20° SSE 05:37:48 10° ESE visible
21 Apr 11.7 04:06:47 10° SSE 04:15:00 13° SE 04:22:01 10° ESE visible
22 Apr 11.2 05:13:59 10° SSW 05:30:51 27° SSE 05:42:21 10° E visible
23 Apr 11.5 04:03:43 10° S 04:17:44 19° SE 04:28:39 10° ESE visible
24 Apr 11.8 02:59:05 10° SSE 03:04:33 11° SE 03:09:38 10° ESE visible
24 Apr 11.0 05:14:12 10° SSW 05:33:36 33° SSE 05:46:20 10° E visible
25 Apr 11.3 04:02:42 10° S 04:20:20 25° SE 04:33:30 10° E visible
26 Apr 11.6 02:53:57 10° SSE 03:07:03 17° SE 03:18:14 10° ESE visible
26 Apr 10.9 05:14:57 10° SSW 05:36:18 40° SSE 05:49:58 10° E visible
27 Apr 11.2 04:02:38 10° SSW 04:22:52 32° SE 04:37:36 10° E visible
28 Apr 11.4 02:53:33 11° S 03:09:25 23° SE 03:23:37 10° E visible
28 Apr 10.8 05:16:08 10° SW 05:38:57 47° SSE 05:53:24 10° E visible
29 Apr 11.6 01:46:19 10° SSE 01:56:13 14° SE 02:05:45 10° ESE visible
29 Apr 11.0 04:03:36 11° SSW 04:25:19 38° SSE 04:41:18 10° E visible
